Location: Laura�t
(43.9341°N, 0.2497°E)
Time: 09:29:39
(UTC+00:00)

Cosmos 2278 Rocket - Pass Details

Date: 03 March 2021
Orbit: 841 x 845 km, 71.0° (Epoch: 18 April)

Event Time Altitude Azimuth Distance (km) Brightness Sun altitude
Rises 18:40:06 0° 346° (NNW) 3,414 5.5 -9.8°
Reaches altitude 10° 18:44:36 10° 19° (NNE) 2,474 4.5 -10.6°
Maximum altitude 18:46:27 12° 39° (NE) 2,366 4.2 -10.9°
Drops below altitude 10° 18:48:17 10° 58° (ENE) 2,470 4.1 -11.3°
Enters shadow 18:48:30 10° 60° (ENE) 2,496 4.1 -11.3°
